This is the latest recevied weather packets stored in our database for station/object EA1IRT-1. If no packets are shown the sender has not sent any weather packets the latest 10 day(s).
| Time | Temp. | Humidity | Pressure | Rain* | Wind** | Luminosity | Snow |
|---|---|---|---|---|---|---|---|
| 1778149945 | 19.44° C | 64% | 1010.8 hPa | - | - | - | - |
| 1778149038 | 19.44° C | 64% | 1010.8 hPa | - | - | - | - |
| 1778148138 | 18.89° C | 66% | 1010.9 hPa | - | - | - | - |
| 1778147238 | 19.44° C | 63% | 1010.9 hPa | - | - | - | - |
| 1778146338 | 19.44° C | 64% | 1011.1 hPa | - | - | - | - |
| 1778145444 | 18.89° C | 67% | 1011.1 hPa | - | - | - | - |
| 1778144537 | 17.78° C | 74% | 1011.2 hPa | - | - | - | - |
| 1778143637 | 17.78° C | 77% | 1011.2 hPa | - | - | - | - |
| 1778142737 | 16.67° C | 80% | 1011.3 hPa | - | - | - | - |
| 1778141837 | 16.11° C | 84% | 1011.4 hPa | - | - | - | - |
| 1778140944 | 16.11° C | 82% | 1011.4 hPa | - | - | - | - |
| 1778140037 | 16.11° C | 84% | 1011.3 hPa | - | - | - | - |
| 1778139137 | 16.11° C | 86% | 1011.4 hPa | - | - | - | - |
| 1778137344 | 15.56° C | 91% | 1011.7 hPa | - | - | - | - |
| 1778136437 | 15° C | 94% | 1011.6 hPa | - | - | - | - |
| 1778135537 | 14.44° C | 99% | 1011.6 hPa | - | - | - | - |
| 1778134643 | 13.89° C | 100% | 1011.7 hPa | - | - | - | - |
| 1778133754 | 181.67° C | 100% | - | - | - | - | - |
| 1778132808 | 12.78° C | 100% | 1011.6 hPa | - | - | - | - |
| 1778131908 | 12.22° C | 100% | 1011.5 hPa | - | - | - | - |
| 1778131008 | 12.22° C | 100% | 1011.4 hPa | - | - | - | - |
| 1778130108 | 12.22° C | 100% | 1011.5 hPa | - | - | - | - |
| 1778129208 | 12.22° C | 100% | 1011.6 hPa | - | - | - | - |
| 1778128308 | 12.22° C | 100% | 1011.7 hPa | - | - | - | - |
| 1778127408 | 11.67° C | 100% | 1011.8 hPa | - | - | - | - |
* Rain since midnight (hover to see other rain measurements)
** Current wind speed in m/s (hover to see current wind gust speed)